| time (UTC) | temp C | wind direction | speed KPH | gust KPH | rain 1hr cm | rain 24hr cm | rain mn cm | humidity % | barometer mb |
| 20260903011513 | 19 | 130 | 14.5 | 24.1 | 0.00 | 0.00 | 0.00 | 45 | 879.3 |
| 20260903010034 | 20 | 119 | 8.0 | 22.5 | 0.00 | 0.00 | 0.00 | 42 | 879.3 |
| 20260903004511 | 20 | 103 | 12.9 | 25.7 | 0.00 | 0.00 | 0.00 | 41 | 879.3 |
| 20260903003010 | 21 | 134 | 12.9 | 27.4 | 0.00 | 0.00 | 0.00 | 38 | 879.2 |
| 20260903001512 | 21 | 133 | 14.5 | 29.0 | 0.00 | 0.00 | 0.00 | 36 | 879.4 |
| 20260903000007 | 22 | 140 | 14.5 | 27.4 | 0.00 | 0.00 | 0.00 | 33 | 879.4 |
| 20260902234506 | 22 | 152 | 14.5 | 32.2 | 0.00 | 0.00 | 0.00 | 33 | 879.4 |
| 20260902233004 | 23 | 175 | 17.7 | 29.0 | 0.00 | 0.00 | 0.00 | 31 | 879.5 |
| 20260902231504 | 23 | 144 | 14.5 | 35.4 | 0.00 | 0.00 | 0.00 | 30 | 879.6 |
| 20260902230003 | 23 | 125 | 14.5 | 35.4 | 0.00 | 0.00 | 0.00 | 32 | 879.9 |
| 20260902224502 | 23 | 98 | 16.1 | 29.0 | 0.00 | 0.00 | 0.00 | 29 | 879.9 |
| 20260902223004 | 24 | 127 | 11.3 | 35.4 | 0.00 | 0.00 | 0.00 | 27 | 880.0 |
| 20260902221600 | 24 | 161 | 8.0 | 37.0 | 0.00 | 0.00 | 0.00 | 26 | 880.0 |
| 20260902220104 | 24 | 120 | 17.7 | 35.4 | 0.00 | 0.00 | 0.00 | 23 | 880.3 |
| 20260902214605 | 24 | 107 | 20.9 | 35.4 | 0.00 | 0.00 | 0.00 | 20 | 880.2 |
| 20260902213056 | 24 | 165 | 17.7 | 37.0 | 0.00 | 0.00 | 0.00 | 20 | 880.3 |
| 20260902211556 | 25 | 144 | 24.1 | 35.4 | 0.00 | 0.00 | 0.00 | 19 | 880.3 |
| 20260902210056 | 24 | 140 | 17.7 | 30.6 | 0.00 | 0.00 | 0.00 | 19 | 880.5 |
| 20260902204555 | 24 | 128 | 17.7 | 37.0 | 0.00 | 0.00 | 0.00 | 20 | 880.6 |
| 20260902203053 | 24 | 144 | 16.1 | 27.4 | 0.00 | 0.00 | 0.00 | 20 | 880.7 |
| 20260902201553 | 24 | 157 | 14.5 | 33.8 | 0.00 | 0.00 | 0.00 | 21 | 880.8 |
| 20260902200052 | 24 | 134 | 12.9 | 33.8 | 0.00 | 0.00 | 0.00 | 22 | 880.8 |
| 20260902194550 | 23 | 137 | 20.9 | 35.4 | 0.00 | 0.00 | 0.00 | 21 | 881.0 |
| 20260902193049 | 23 | 171 | 16.1 | 32.2 | 0.00 | 0.00 | 0.00 | 19 | 881.0 |
| 20260902191550 | 23 | 125 | 14.5 | 27.4 | 0.00 | 0.00 | 0.00 | 19 | 881.2 |
| 20260902190047 | 23 | 147 | 12.9 | 29.0 | 0.00 | 0.00 | 0.00 | 19 | 881.1 |
| 20260902184546 | 23 | 142 | 12.9 | 35.4 | 0.00 | 0.00 | 0.00 | 18 | 881.2 |
| 20260902183043 | 22 | 136 | 17.7 | 35.4 | 0.00 | 0.00 | 0.00 | 19 | 881.3 |
| 20260902181547 | 22 | 162 | 16.1 | 33.8 | 0.00 | 0.00 | 0.00 | 17 | 881.2 |
| 20260902180052 | 22 | 117 | 16.1 | 35.4 | 0.00 | 0.00 | 0.00 | 17 | 881.1 |
| 20260902174538 | 22 | 121 | 16.1 | 29.0 | 0.00 | 0.00 | 0.00 | 18 | 881.2 |
| 20260902173036 | 21 | 97 | 14.5 | 35.4 | 0.00 | 0.00 | 0.00 | 18 | 881.2 |
| 20260902171538 | 21 | 115 | 16.1 | 29.0 | 0.00 | 0.00 | 0.00 | 18 | 881.0 |
| 20260902170031 | 21 | 140 | 12.9 | 29.0 | 0.00 | 0.00 | 0.00 | 18 | 881.0 |
| 20260902164528 | 21 | 143 | 12.9 | 29.0 | 0.00 | 0.00 | 0.00 | 19 | 880.9 |
| 20260902163023 | 20 | 136 | 12.9 | 25.7 | 0.00 | 0.00 | 0.00 | 20 | 880.8 |
| 20260902161535 | 20 | 130 | 16.1 | 24.1 | 0.00 | 0.00 | 0.00 | 19 | 880.7 |
| 20260902160036 | 20 | 132 | 11.3 | 25.7 | 0.00 | 0.00 | 0.00 | 19 | 880.8 |
| 20260902154532 | 19 | 142 | 11.3 | 22.5 | 0.00 | 0.00 | 0.00 | 19 | 880.6 |
| 20260902153139 | 19 | 117 | 9.7 | 25.7 | 0.00 | 0.00 | 0.00 | 20 | 880.6 |
| 20260902151514 | 18 | 106 | 12.9 | 20.9 | 0.00 | 0.00 | 0.00 | 21 | 880.4 |
| 20260902143017 | 17 | 113 | 8.0 | 17.7 | 0.00 | 0.00 | 0.00 | 23 | 880.5 |
| 20260902141524 | 16 | 114 | 11.3 | 20.9 | 0.00 | 0.00 | 0.00 | 23 | 880.5 |
| 20260902133046 | 15 | 125 | 9.7 | 17.7 | 0.00 | 0.00 | 0.00 | 24 | 880.0 |
| 20260902131544 | 15 | 87 | 8.0 | 14.5 | 0.00 | 0.00 | 0.00 | 24 | 879.9 |
| 20260902130044 | 15 | 123 | 4.8 | 14.5 | 0.00 | 0.00 | 0.00 | 25 | 879.8 |
| 20260902124542 | 15 | 94 | 8.0 | 16.1 | 0.00 | 0.00 | 0.00 | 25 | 879.8 |
| 20260902123044 | 15 | 83 | 8.0 | 14.5 | 0.00 | 0.00 | 0.00 | 27 | 879.8 |
| 20260902121540 | 16 | 94 | 8.0 | 17.7 | 0.00 | 0.00 | 0.00 | 34 | 879.7 |
| 20260902120041 | 16 | 86 | 9.7 | 19.3 | 0.00 | 0.00 | 0.00 | 37 | 879.8 |
| 20260902114603 | 16 | 60 | 9.7 | 22.5 | 0.00 | 0.00 | 0.00 | 37 | 879.8 |
| 20260902113052 | 16 | 97 | 9.7 | 19.3 | 0.00 | 0.00 | 0.00 | 36 | 879.8 |
| 20260902111535 | 16 | 127 | 9.7 | 25.7 | 0.00 | 0.00 | 0.00 | 31 | 879.8 |
| 20260902110040 | 16 | 78 | 11.3 | 24.1 | 0.00 | 0.00 | 0.00 | 29 | 879.9 |
| 20260902104538 | 16 | 129 | 12.9 | 25.7 | 0.00 | 0.00 | 0.00 | 26 | 879.9 |
| 20260902103033 | 16 | 121 | 12.9 | 24.1 | 0.00 | 0.00 | 0.00 | 27 | 879.9 |
| 20260902101529 | 16 | 101 | 9.7 | 22.5 | 0.00 | 0.00 | 0.00 | 29 | 879.9 |
| 20260902100029 | 16 | 80 | 9.7 | 20.9 | 0.00 | 0.00 | 0.00 | 27 | 880.1 |
| 20260902094529 | 16 | 94 | 8.0 | 20.9 | 0.00 | 0.00 | 0.00 | 25 | 880.2 |
| 20260902093027 | 16 | 116 | 9.7 | 20.9 | 0.00 | 0.00 | 0.00 | 25 | 880.1 |
| 20260902091528 | 16 | 145 | 8.0 | 14.5 | 0.00 | 0.00 | 0.00 | 27 | 880.2 |
| 20260902090024 | 16 | 141 | 8.0 | 20.9 | 0.00 | 0.00 | 0.00 | 25 | 880.4 |
| 20260902084526 | 16 | 115 | 8.0 | 16.1 | 0.00 | 0.00 | 0.00 | 25 | 880.5 |
| 20260902083027 | 16 | 119 | 6.4 | 16.1 | 0.00 | 0.00 | 0.00 | 28 | 880.5 |
| 20260902081518 | 15 | 92 | 9.7 | 20.9 | 0.00 | 0.00 | 0.00 | 26 | 880.5 |
| 20260902080016 | 15 | 98 | 6.4 | 14.5 | 0.00 | 0.00 | 0.00 | 26 | 880.5 |
| 20260902074518 | 15 | 112 | 8.0 | 14.5 | 0.00 | 0.00 | 0.00 | 26 | 880.4 |
| 20260902073012 | 15 | 96 | 4.8 | 12.9 | 0.00 | 0.00 | 0.00 | 27 | 880.5 |
| 20260902071510 | 14 | 76 | 4.8 | 14.5 | 0.00 | 0.00 | 0.00 | 28 | 880.4 |
| 20260902070009 | 14 | 94 | 3.2 | 11.3 | 0.00 | 0.00 | 0.00 | 29 | 880.4 |
| 20260902064508 | 15 | 75 | 3.2 | 12.9 | 0.00 | 0.00 | 0.00 | 28 | 880.3 |
| 20260902063015 | 15 | 101 | 4.8 | 14.5 | 0.00 | 0.00 | 0.00 | 29 | 880.3 |
| 20260902061521 | 15 | 37 | 6.4 | 14.5 | 0.00 | 0.00 | 0.00 | 28 | 880.1 |
| 20260902060015 | 15 | 82 | 3.2 | 12.9 | 0.00 | 0.00 | 0.00 | 28 | 880.0 |
| 20260902054510 | 15 | 76 | 4.8 | 14.5 | 0.00 | 0.00 | 0.00 | 28 | 880.0 |
| 20260902053008 | 15 | 102 | 6.4 | 16.1 | 0.00 | 0.00 | 0.00 | 28 | 880.1 |
| 20260902051505 | 15 | 106 | 9.7 | 16.1 | 0.00 | 0.00 | 0.00 | 28 | 880.2 |
| 20260902050007 | 15 | 67 | 4.8 | 12.9 | 0.00 | 0.00 | 0.00 | 30 | 880.2 |
| 20260902044504 | 15 | 90 | 4.8 | 14.5 | 0.00 | 0.00 | 0.00 | 32 | 880.2 |
| 20260902043004 | 14 | 71 | 4.8 | 14.5 | 0.00 | 0.00 | 0.00 | 34 | 880.2 |
| 20260902041506 | 14 | 76 | 6.4 | 12.9 | 0.00 | 0.00 | 0.00 | 37 | 879.8 |
| 20260902040001 | 15 | 92 | 8.0 | 14.5 | 0.00 | 0.00 | 0.00 | 52 | 879.7 |
| 20260902034504 | 15 | 117 | 8.0 | 14.5 | 0.00 | 0.00 | 0.00 | 55 | 879.5 |
| 20260902033105 | 15 | 118 | 8.0 | 20.9 | 0.00 | 0.00 | 0.00 | 57 | 879.3 |
| 20260902031555 | 16 | 97 | 9.7 | 19.3 | 0.00 | 0.00 | 0.00 | 50 | 879.2 |
| 20260902030054 | 16 | 109 | 11.3 | 25.7 | 0.00 | 0.00 | 0.00 | 54 | 879.0 |
| 20260902024553 | 16 | 108 | 14.5 | 24.1 | 0.00 | 0.00 | 0.00 | 53 | 878.9 |
| 20260902023052 | 17 | 128 | 11.3 | 20.9 | 0.00 | 0.00 | 0.00 | 52 | 878.9 |
| 20260902021549 | 17 | 98 | 9.7 | 22.5 | 0.00 | 0.00 | 0.00 | 49 | 878.8 |
| 20260902020056 | 18 | 119 | 11.3 | 24.1 | 0.00 | 0.00 | 0.00 | 46 | 878.9 |
| 20260902014547 | 18 | 76 | 14.5 | 27.4 | 0.00 | 0.00 | 0.00 | 44 | 878.9 |
| 20260902013048 | 19 | 154 | 17.7 | 35.4 | 0.00 | 0.00 | 0.00 | 43 | 878.9 |